Weather History for PAEI - October, 2013

Change the Weather History Date:

Monday, October 7, 2013

  Actual Average Record
Temperature  
Mean Temperature 32 °F -  
Max Temperature 38 °F 38 °F 64 °F (1969)
Min Temperature 26 °F 26 °F 14 °F (1949)
Degree Days  
Heating Degree Days 34    
Moisture  
Dew Point 31 °F    
Average Humidity 95    
Maximum Humidity 100    
Minimum Humidity 81    
Precipitation  
Precipitation 0.00 in - - ()
Sea Level Pressure  
Sea Level Pressure 29.79 in    
Wind  
Wind Speed 2 mph (SE)    
Max Wind Speed 6 mph    
Max Gust Speed -    
Visibility 5 miles    
Events Fog , Snow    
Averages and records for this station are not official NWS values.
T = Trace of Precipitation, MM = Missing Value Source: NWS Daily Summary

Daily Weather History Graph

Daily Weather History Graph

Search for Another Location

Airport or City:

Trip Planner

Search our weather history database for the weather conditions in past years. The results will help you decide how hot, cold, wet, or windy it might be!

Date:

Astronomy

Oct. 07, 2013 Rise Set
Actual Time 8:17 AM AKDT 6:53 PM AKDT
Civil Twilight 7:28 AM AKDT 7:42 PM AKDT
Nautical Twilight 6:31 AM AKDT 8:38 PM AKDT
Astronomical Twilight 5:32 AM AKDT 9:37 PM AKDT
Moon 12:36 PM AKDT (10/7) 7:23 PM AKDT (10/7)
Length of Visible Light 12h 13m
Length of Day
10h 36m
Waxing Crescent, 9% of the Moon is Illuminated
Oct 7
Waxing Crescent
Oct 11
First Quarter
Oct 18
Full
Oct 26
Last Quarter
Nov 3
New

Hourly Weather History & Observations

Time (AKDT) Temp. Windchill Dew Point Humidity Pressure Visibility Wind Dir Wind Speed Gust Speed Precip Events Conditions
12:13 AM 32.0 °F - 32.0 °F 100% 29.71 in 10.0 mi Variable 2.3 mph - N/A   Overcast
12:58 AM 32.5 °F - 31.3 °F 95% 29.74 in 10.0 mi Variable 1.2 mph - N/A   Overcast
1:27 AM 32.0 °F - 32.0 °F 100% 29.72 in 10.0 mi Calm Calm - N/A   Overcast
1:58 AM 32.5 °F - 31.3 °F 95% 29.75 in 10.0 mi Calm Calm - N/A   Overcast
2:13 AM 32.0 °F - 32.0 °F 100% 29.72 in 10.0 mi Calm Calm - N/A   Overcast
2:58 AM 32.4 °F - 31.3 °F 96% 29.76 in 10.0 mi Calm Calm - N/A   Overcast
3:58 AM 32.2 °F - 31.1 °F 96% 29.77 in 10.0 mi Variable 2.3 mph - 0.00 in   Overcast
4:43 AM 32.0 °F - 32.0 °F 100% 29.75 in 2.5 mi Calm Calm - N/A   Overcast
4:58 AM 32.2 °F - 31.1 °F 96% 29.77 in 2.0 mi Calm Calm - 0.00 in   Overcast
5:13 AM 32.0 °F - 32.0 °F 100% 29.75 in 1.5 mi Variable 2.3 mph - N/A   Overcast
5:58 AM 32.2 °F 28.9 °F 31.5 °F 97% 29.78 in 2.5 mi SSE 3.5 mph - 0.00 in Snow Light Snow
6:13 AM 32.0 °F 28.7 °F 32.0 °F 100% 29.75 in 3.0 mi Variable 3.5 mph - N/A Snow Light Snow
6:58 AM 32.2 °F - 31.1 °F 96% 29.79 in 5.0 mi Variable 2.3 mph - 0.00 in Snow Light Snow
7:13 AM 32.0 °F - 32.0 °F 100% 29.76 in 4.0 mi Variable 2.3 mph - N/A Snow Light Snow
7:28 AM 32.0 °F 28.7 °F 32.0 °F 100% 29.77 in 4.0 mi Variable 3.5 mph - N/A Snow Light Snow
7:43 AM 32.0 °F 28.7 °F 32.0 °F 100% 29.77 in 2.5 mi South 3.5 mph - N/A   Overcast
7:58 AM 32.4 °F 29.1 °F 31.3 °F 96% 29.80 in 1.0 mi SSE 3.5 mph - 0.00 in   Overcast
8:28 AM 32.0 °F - 32.0 °F 100% 29.78 in 0.5 mi SE 1.2 mph - N/A Fog Drizzle
8:43 AM 32.0 °F 28.7 °F 32.0 °F 100% 29.78 in 0.5 mi Variable 3.5 mph - N/A Fog Drizzle
8:58 AM 32.5 °F - 31.5 °F 96% 29.82 in 0.5 mi Calm Calm - N/A Fog Light Freezing Fog
9:58 AM 32.7 °F - 31.6 °F 96% 29.80 in 0.5 mi Calm Calm - N/A Fog Fog
10:13 AM 33.8 °F - 32.0 °F 93% 29.80 in 0.5 mi Variable 2.3 mph - N/A Fog Drizzle
10:28 AM 32.0 °F - 32.0 °F 100% 29.80 in 0.5 mi SSW 1.2 mph - N/A Fog Fog
10:43 AM 33.8 °F - 32.0 °F 93% 29.81 in 0.5 mi Variable 2.3 mph - N/A Fog Fog
10:58 AM 32.9 °F - 31.6 °F 95% 29.84 in 0.8 mi Calm Calm - 0.00 in   Overcast
11:13 AM 32.0 °F - 32.0 °F 100% 29.81 in 0.8 mi Variable 1.2 mph - N/A   Mostly Cloudy
11:28 AM 32.0 °F - 32.0 °F 100% 29.82 in 1.5 mi SSE 2.3 mph - N/A   Mostly Cloudy
11:43 AM 32.0 °F 28.7 °F 32.0 °F 100% 29.82 in 2.0 mi Variable 3.5 mph - N/A   Overcast
11:58 AM 32.9 °F - 31.6 °F 95% 29.85 in 4.0 mi SE 2.3 mph - N/A   Overcast
12:28 PM 32.0 °F - 32.0 °F 100% 29.82 in 6.0 mi Variable 1.2 mph - N/A   Overcast
12:58 PM 33.8 °F - 31.6 °F 92% 29.85 in 10.0 mi Calm Calm - N/A   Overcast
1:43 PM 35.6 °F - 32.0 °F 87% 29.83 in 10.0 mi Variable 2.3 mph - N/A   Overcast
1:58 PM 35.4 °F 32.6 °F 32.9 °F 91% 29.86 in 10.0 mi Variable 3.5 mph - N/A   Overcast
2:58 PM 36.5 °F 33.9 °F 33.6 °F 89% 29.86 in 10.0 mi ESE 3.5 mph - N/A   Overcast
3:43 PM 37.4 °F 32.8 °F 32.0 °F 81% 29.84 in 10.0 mi ESE 5.8 mph - N/A   Overcast
3:58 PM 37.6 °F 34.0 °F 33.3 °F 84% 29.87 in 10.0 mi ESE 4.6 mph - N/A   Overcast
4:58 PM 37.9 °F 34.4 °F 34.2 °F 86% 29.86 in 10.0 mi NE 4.6 mph - N/A   Mostly Cloudy
5:13 PM 37.4 °F 34.9 °F 33.8 °F 87% 29.83 in 10.0 mi NE 3.5 mph - N/A   Mostly Cloudy
5:58 PM 37.6 °F - 35.1 °F 91% 29.85 in 10.0 mi Calm Calm - N/A   Mostly Cloudy
6:58 PM 35.6 °F - 33.4 °F 92% 29.85 in 10.0 mi Calm Calm - N/A   Scattered Clouds
7:58 PM 31.5 °F - 30.4 °F 96% 29.84 in 10.0 mi Calm Calm - N/A   Partly Cloudy
8:58 PM 28.6 °F - 27.9 °F 97% 29.83 in 7.0 mi Calm Calm - N/A   Clear
9:28 PM 28.4 °F - 26.6 °F 93% 29.79 in 2.0 mi Calm Calm - N/A   Clear
9:58 PM 28.0 °F - 27.1 °F 96% 29.80 in 1.5 mi Calm Calm - N/A   Clear
10:43 PM 28.4 °F - 26.6 °F 93% 29.75 in 1.2 mi Calm Calm - N/A   Clear
10:58 PM 27.5 °F - 26.4 °F 96% 29.77 in 1.0 mi Calm Calm - N/A   Clear
11:13 PM 26.6 °F - 24.8 °F 93% 29.73 in 3.0 mi Calm Calm - N/A   Clear
11:28 PM 26.6 °F 21.2 °F 24.8 °F 93% 29.72 in 10.0 mi NNW 4.6 mph - N/A   Clear
11:58 PM 27.0 °F - 25.7 °F 95% 29.74 in 10.0 mi Variable 2.3 mph - N/A   Clear